| time (UTC) | temp F | wind direction | speed knots | gust knots | rain 1hr in | rain 24hr in | rain mn in | humidity % | barometer mb |
| 20260504233020 | 58 | 297 | 1.7 | 7.8 | 0.00 | 0.00 | 0.00 | 77 | 1019.5 |
| 20260504231519 | 58 | 234 | 2.6 | 7.0 | 0.00 | 0.00 | 0.00 | 78 | 1019.3 |
| 20260504230034 | 58 | 256 | 2.6 | 7.8 | 0.00 | 0.00 | 0.00 | 79 | 1019.2 |
| 20260504224517 | 58 | 260 | 1.7 | 8.7 | 0.00 | 0.00 | 0.00 | 80 | 1019.1 |
| 20260504223016 | 57 | 261 | 1.7 | 7.0 | 0.00 | 0.00 | 0.00 | 81 | 1018.8 |
| 20260504221534 | 57 | 274 | 0.9 | 7.0 | 0.00 | 0.00 | 0.00 | 82 | 1018.4 |
| 20260504220013 | 57 | 277 | 1.7 | 5.2 | 0.00 | 0.00 | 0.00 | 83 | 1018.2 |
| 20260504214511 | 57 | 279 | 1.7 | 5.2 | 0.00 | 0.00 | 0.00 | 83 | 1017.9 |
| 20260504213009 | 57 | 296 | 1.7 | 8.7 | 0.00 | 0.00 | 0.00 | 83 | 1017.6 |
| 20260504211507 | 57 | 273 | 0.9 | 5.2 | 0.00 | 0.00 | 0.00 | 83 | 1017.3 |
| 20260504210005 | 57 | 254 | 2.6 | 6.1 | 0.00 | 0.00 | 0.00 | 83 | 1017.2 |
| 20260504204503 | 57 | 275 | 2.6 | 7.8 | 0.00 | 0.00 | 0.00 | 83 | 1017.0 |
| 20260504203002 | 57 | 267 | 1.7 | 6.1 | 0.00 | 0.00 | 0.00 | 83 | 1016.7 |
| 20260504201559 | 57 | 277 | 1.7 | 5.2 | 0.00 | 0.00 | 0.00 | 82 | 1016.4 |
| 20260504200100 | 57 | 294 | 1.7 | 5.2 | 0.00 | 0.00 | 0.00 | 82 | 1016.2 |
| 20260504194600 | 57 | 282 | 1.7 | 8.7 | 0.00 | 0.00 | 0.00 | 81 | 1016.0 |
| 20260504193100 | 57 | 308 | 0.9 | 7.8 | 0.00 | 0.00 | 0.00 | 80 | 1015.9 |
| 20260504191556 | 57 | 275 | 1.7 | 6.1 | 0.00 | 0.00 | 0.00 | 80 | 1015.8 |
| 20260504190050 | 57 | 254 | 2.6 | 7.8 | 0.00 | 0.00 | 0.00 | 80 | 1015.6 |
| 20260504184547 | 58 | 281 | 1.7 | 8.7 | 0.00 | 0.00 | 0.00 | 79 | 1015.4 |
| 20260504183046 | 58 | 267 | 0.9 | 7.0 | 0.00 | 0.00 | 0.00 | 79 | 1015.1 |
| 20260504181548 | 58 | 240 | 2.6 | 9.6 | 0.00 | 0.00 | 0.00 | 79 | 1015.1 |
| 20260504180049 | 58 | 254 | 0.9 | 7.8 | 0.00 | 0.00 | 0.00 | 79 | 1014.8 |
| 20260504174545 | 58 | 256 | 1.7 | 7.8 | 0.00 | 0.00 | 0.00 | 78 | 1014.8 |
| 20260504173042 | 58 | 293 | 2.6 | 9.6 | 0.00 | 0.00 | 0.00 | 77 | 1014.7 |
| 20260504171539 | 58 | 268 | 2.6 | 9.6 | 0.00 | 0.00 | 0.00 | 76 | 1014.5 |
| 20260504081505 | 61 | 298 | 5.2 | 13.9 | 0.00 | 0.00 | 0.00 | 66 | 1009.7 |
| 20260504050001 | 68 | 360 | 9.6 | 21.7 | 0.00 | 0.00 | 0.00 | 53 | 1008.6 |
| 20260504044501 | 68 | 355 | 9.6 | 23.5 | 0.00 | 0.00 | 0.00 | 52 | 1008.5 |
| 20260504043112 | 68 | 326 | 7.8 | 20.9 | 0.00 | 0.00 | 0.00 | 52 | 1008.6 |
| 20260504041600 | 68 | 360 | 11.3 | 23.5 | 0.00 | 0.00 | 0.00 | 51 | 1008.6 |
| 20260504040114 | 68 | 360 | 7.0 | 21.7 | 0.00 | 0.00 | 0.00 | 52 | 1008.8 |
| 20260504034554 | 67 | 331 | 8.7 | 17.4 | 0.00 | 0.00 | 0.00 | 52 | 1008.8 |
| 20260504033053 | 67 | 309 | 9.6 | 21.7 | 0.00 | 0.00 | 0.00 | 52 | 1009.2 |
| 20260504031556 | 67 | 341 | 6.1 | 24.3 | 0.00 | 0.00 | 0.00 | 53 | 1009.4 |
| 20260504030049 | 67 | 343 | 7.8 | 14.8 | 0.00 | 0.00 | 0.00 | 56 | 1009.5 |
| 20260504024549 | 66 | 360 | 4.3 | 10.4 | 0.00 | 0.00 | 0.00 | 58 | 1009.7 |
| 20260504023057 | 66 | 327 | 6.1 | 14.8 | 0.00 | 0.00 | 0.00 | 57 | 1009.9 |
| 20260504021550 | 67 | 292 | 4.3 | 18.2 | 0.00 | 0.00 | 0.00 | 56 | 1010.0 |
| 20260504020046 | 67 | 348 | 7.0 | 15.6 | 0.00 | 0.00 | 0.00 | 56 | 1010.1 |
| 20260504014553 | 66 | 314 | 7.0 | 14.8 | 0.00 | 0.00 | 0.00 | 58 | 1010.3 |
| 20260504013039 | 66 | 314 | 4.3 | 18.2 | 0.00 | 0.00 | 0.00 | 58 | 1010.5 |
| 20260504011540 | 65 | 327 | 9.6 | 18.2 | 0.00 | 0.00 | 0.00 | 57 | 1010.6 |
| 20260504010037 | 65 | 290 | 7.0 | 16.5 | 0.00 | 0.00 | 0.00 | 58 | 1010.7 |
| 20260504004544 | 65 | 336 | 3.5 | 13.0 | 0.00 | 0.00 | 0.00 | 59 | 1010.7 |
| 20260504003036 | 65 | 335 | 3.5 | 17.4 | 0.00 | 0.00 | 0.00 | 60 | 1010.8 |
| 20260504001537 | 65 | 355 | 2.6 | 13.9 | 0.00 | 0.00 | 0.00 | 61 | 1010.7 |
| 20260504000032 | 64 | 346 | 5.2 | 15.6 | 0.00 | 0.00 | 0.00 | 62 | 1010.7 |
| 20260503234533 | 63 | 328 | 4.3 | 13.9 | 0.00 | 0.00 | 0.00 | 64 | 1010.8 |